WetterOnline ( http://www.wetteronline.de )

Wetter aktuell Ostallgäu

Aktuelles Wetter: Kempten (705m)

6-stündlich | Neueste Meldungen
Ortszeit Temperatur Wetter
Mi, 18.07. 8:00 16.6° C bedeckt
Mi, 18.07. 2:00 15.9° C wolkig
Di, 17.07. 20:00 22.0° C bedeckt
Di, 17.07. 14:00 23.8° C fast wolkenlos
Di, 17.07. 8:00 16.0° C wolkenlos
Di, 17.07. 2:00 12.3° C wolkenlos
Mo, 16.07. 20:00 21.6° C wolkig
Mo, 16.07. 14:00 24.5° C wolkenlos
Ortszeit Temperatur Wetter
Mi, 18.07. 10:00 21.7° C leicht bewölkt
Mi, 18.07. 9:50 21.7° C leicht bewölkt
Mi, 18.07. 9:40 21.1° C wolkig
Mi, 18.07. 9:30 21.6° C fast wolkenlos
Mi, 18.07. 9:20 21.6° C fast wolkenlos
Mi, 18.07. 9:10 20.1° C wolkenlos
Mi, 18.07. 9:00 19.1° C fast wolkenlos
Mi, 18.07. 8:30 17.7° C leicht bewölkt
Mi, 18.07. 8:00 16.6° C bedeckt
Mi, 18.07. 7:30 16.1° C leicht bewölkt
Mi, 18.07. 7:00 13.1° C leicht bewölkt
Ortszeit Relative Feuchte Sichtweite
Mi, 18.07. 8:00 69% 30 km
Mi, 18.07. 2:00 76% 30 km
Di, 17.07. 20:00 43% 45 km
Di, 17.07. 14:00 39% 19 km
Di, 17.07. 8:00 77% 13 km
Di, 17.07. 2:00 90% 13 km
Mo, 16.07. 20:00 50% 30 km
Mo, 16.07. 14:00 36% 18 km
Ortszeit Relative Feuchte Sichtweite
Mi, 18.07. 10:00 52% 35 km
Mi, 18.07. 9:50 52% -
Mi, 18.07. 9:40 54% -
Mi, 18.07. 9:30 55% 26 km
Mi, 18.07. 9:20 55% -
Mi, 18.07. 9:10 59% -
Mi, 18.07. 9:00 63% 27 km
Mi, 18.07. 8:30 67% 19 km
Mi, 18.07. 8:00 69% 30 km
Mi, 18.07. 7:30 76% 21 km
Mi, 18.07. 7:00 87% 20 km
Ortszeit Niederschlagsmenge Niederschlagsart
Mi, 18.07. 8:00 0.2 l/m2 in 12 Std. -
Mi, 18.07. 2:00 0.2 l/m2 in 6 Std. Regen
Di, 17.07. 20:00 0.1 l/m2 in 12 Std. Regen
Di, 17.07. 14:00 0.0 l/m2 in 6 Std. -
Di, 17.07. 8:00 0.0 l/m2 in 12 Std. -
Di, 17.07. 2:00 0.0 l/m2 in 6 Std. -
Mo, 16.07. 20:00 0.0 l/m2 in 12 Std. -
Mo, 16.07. 14:00 0.0 l/m2 in 6 Std. -
Ortszeit Niederschlagsmenge Niederschlagsart
Mi, 18.07. 10:00 0.0 l/m2 in 1 Std. -
Mi, 18.07. 9:50 keine Meldung -
Mi, 18.07. 9:40 keine Meldung -
Mi, 18.07. 9:30 0.0 l/m2 in 1 Std. -
Mi, 18.07. 9:20 keine Meldung -
Mi, 18.07. 9:10 keine Meldung -
Mi, 18.07. 9:00 0.0 l/m2 in 1 Std. -
Mi, 18.07. 8:30 0.0 l/m2 in 1 Std. -
Mi, 18.07. 8:00 0.0 l/m2 in 1 Std. -
Mi, 18.07. 7:30 0.0 l/m2 in 1 Std. -
Mi, 18.07. 7:00 0.0 l/m2 in 1 Std. -
Ortszeit Stärke Spitze Richtung
km/h Bft. km/h Grad Sektor
Mi, 18.07. 8:00 6 1 11 - -
Mi, 18.07. 2:00 6 1 19 - -
Di, 17.07. 20:00 9 2 50 - -
Di, 17.07. 14:00 11 2 25 - -
Di, 17.07. 8:00 7 2 14 - -
Di, 17.07. 2:00 6 1 15 - -
Mo, 16.07. 20:00 9 2 30 - -
Mo, 16.07. 14:00 11 2 22 - -
Ortszeit Stärke Spitze Richtung
km/h Bft. km/h Grad Sektor
Mi, 18.07. 10:00 2 1 7 - -
Mi, 18.07. 9:50 2 1 - - -
Mi, 18.07. 9:40 4 1 - - -
Mi, 18.07. 9:30 2 1 7 - -
Mi, 18.07. 9:20 2 1 - - -
Mi, 18.07. 9:10 2 1 - - -
Mi, 18.07. 9:00 4 1 11 - -
Mi, 18.07. 8:30 6 1 11 - -
Mi, 18.07. 8:00 6 1 11 - -
Mi, 18.07. 7:30 4 1 11 - -
Mi, 18.07. 7:00 7 2 11 - -
Ortszeit Untergrenze Bedeckung Gattung
total tief tief mittel hoch
Mi, 18.07. 8:00 2100 m 8/8 8/8 - - -
Mi, 18.07. 2:00 2400 m 6/8 5/8 - - -
Di, 17.07. 20:00 2700 m 8/8 8/8 - - -
Di, 17.07. 14:00 7200 m 1/8 0/8 - - -
Di, 17.07. 8:00 - 0/8 0/8 - - -
Di, 17.07. 2:00 - 0/8 0/8 - - -
Mo, 16.07. 20:00 3300 m 6/8 6/8 - - -
Mo, 16.07. 14:00 - 0/8 0/8 - - -
Ortszeit Bedeckungsgrad in Achtel und Wolkenuntergrenze
Mi, 18.07. 10:00 4(1800m)
Mi, 18.07. 9:50 4(1800m)
Mi, 18.07. 9:40 5(1800m)
Mi, 18.07. 9:30 1(2100m)
Mi, 18.07. 9:20 1(2100m)
Mi, 18.07. 9:10 keine Wolken
Mi, 18.07. 9:00 1(2100m)
Mi, 18.07. 8:30 3(2700m)
Mi, 18.07. 8:00 1(2100m) 8(2700m)
Mi, 18.07. 7:30 4(2400m)
Mi, 18.07. 7:00 2(2700m)
Ortszeit Luftdruck NN (hPa) Tendenz (hPa in 3 Std.)
Mi, 18.07. 8:00 1018 + 0,2
Mi, 18.07. 2:00 1018 + 0,3
Di, 17.07. 20:00 1015 + 0,3
Di, 17.07. 14:00 1014 - 0,2
Di, 17.07. 8:00 1016 + 1,0
Di, 17.07. 2:00 1015 + 1,2
Mo, 16.07. 20:00 1010 - 0,3
Mo, 16.07. 14:00 1010 - 1,3
Ortszeit Luftdruck NN (hPa) Tendenz (hPa in 3 Std.)
Mi, 18.07. 10:00 1017 + 0,1
Mi, 18.07. 9:50 1017 keine Meldung
Mi, 18.07. 9:40 1017 keine Meldung
Mi, 18.07. 9:30 1017 + 0,2
Mi, 18.07. 9:20 1017 keine Meldung
Mi, 18.07. 9:10 1017 keine Meldung
Mi, 18.07. 9:00 1017 + 0,3
Mi, 18.07. 8:30 1018 + 0,3
Mi, 18.07. 8:00 1018 + 0,2
Mi, 18.07. 7:30 1018 0,0
Mi, 18.07. 7:00 1019 0,0
Ortszeit Schneehöhe (cm)
Mi, 18.07. 8:00 -
Mi, 18.07. 2:00 -
Di, 17.07. 20:00 -
Di, 17.07. 14:00 -
Di, 17.07. 8:00 -
Di, 17.07. 2:00 -
Mo, 16.07. 20:00 -
Mo, 16.07. 14:00 -
Ortszeit Schneehöhe (cm)
Mi, 18.07. 10:00 -
Mi, 18.07. 9:50 -
Mi, 18.07. 9:40 -
Mi, 18.07. 9:30 -
Mi, 18.07. 9:20 -
Mi, 18.07. 9:10 -
Mi, 18.07. 9:00 -
Mi, 18.07. 8:30 -
Mi, 18.07. 8:00 -
Mi, 18.07. 7:30 -
Mi, 18.07. 7:00 -
Link zu dieser Seite / Seite empfehlen

Das Wetter in ...